Terug naar catalogus

GHGSAT-C5

ActiefWetenschapSSO
NORAD 52744·PAYLOAD·🇨🇦 Canada

Gelanceerd May 25, 2022 vanaf Cape Canaveral Space Force Station

Loading…

Volgende Passages (komende 24 uur)

TLE

VersSource: Space-Track

Epoch: Sep 14, 2026, 20:34 UTC

1 52744U 22057N   26257.85710677  .00005758  00000-0  17039-3 0  9999
2 52744  97.6812  48.6865 0007180 150.9985 209.1658 15.35301900239290

Volg GHGSAT-C5 in realtime met AllMySat

Download on the App Store